Station Historical Data
Daily Summary for May 25, 2017 Units:  English    Metric   Both
Next Day »
Daily Weekly Monthly Yearly Custom
  High: Low: Average:
Temperature: 66.9 °F 49.5 °F 58.4 °F
Dew Point: 51.2 °F 36.6 °F 46.8 °F
Humidity: 83% 41% 66%
Wind Speed: 14.0mph 0.0mph 2.3mph
Wind Gust: 18.0mph - -
Wind- - South
Pressure: 29.83 in 29.61 in -
Precipitation: 0.00 in    
Historical Graphs
 
 
Tabular Data for May 25, 2017
Time Temperature Dew Point Pressure Wind Wind Speed Wind Gust Humidity Rainfall Rate (Hourly) solar Conditions
00:00 60.4 °F 36.6 °F 29.64 in SE 2.0 mph 13.0 mph 41% 0.00 in 0.00 W/m2
00:05 60.4 °F 37.2 °F 29.64 in SE 8.0 mph 14.0 mph 42% 0.00 in 0.00 W/m2
00:10 60.3 °F 37.7 °F 29.64 in SE 10.0 mph 12.0 mph 43% 0.00 in 0.00 W/m2
00:15 60.3 °F 38.9 °F 29.64 in SE 5.0 mph 12.0 mph 45% 0.00 in 0.00 W/m2
00:20 60.2 °F 39.9 °F 29.63 in SE 4.0 mph 11.0 mph 47% 0.00 in 0.00 W/m2
00:25 60.2 °F 41.5 °F 29.63 in SE 7.0 mph 15.0 mph 50% 0.00 in 0.00 W/m2
00:30 60.2 °F 42.0 °F 29.63 in SE 7.0 mph 11.0 mph 51% 0.00 in 0.00 W/m2
00:35 60.1 °F 42.9 °F 29.63 in SE 9.0 mph 13.0 mph 53% 0.00 in 0.00 W/m2
00:40 60.0 °F 42.8 °F 29.63 in SE 8.0 mph 13.0 mph 53% 0.00 in 0.00 W/m2
00:45 59.9 °F 43.2 °F 29.63 in SE 5.0 mph 13.0 mph 54% 0.00 in 0.00 W/m2
00:50 59.9 °F 43.2 °F 29.62 in SE 7.0 mph 12.0 mph 54% 0.00 in 0.00 W/m2
00:55 59.8 °F 43.1 °F 29.62 in SE 6.0 mph 13.0 mph 54% 0.00 in 0.00 W/m2
01:00 59.7 °F 43.0 °F 29.62 in SE 11.0 mph 13.0 mph 54% 0.00 in 0.00 W/m2
01:05 59.6 °F 42.5 °F 29.62 in SE 6.0 mph 9.0 mph 53% 0.00 in 0.00 W/m2
01:10 59.6 °F 42.5 °F 29.62 in SE 7.0 mph 13.0 mph 53% 0.00 in 0.00 W/m2
01:15 59.5 °F 42.9 °F 29.62 in Calm   12.0 mph 54% 0.00 in 0.00 W/m2
01:20 59.5 °F 43.3 °F 29.62 in Calm   12.0 mph 55% 0.00 in 0.00 W/m2
01:25 59.5 °F 43.3 °F 29.62 in SE 9.0 mph 13.0 mph 55% 0.00 in 0.00 W/m2
01:31 59.4 °F 43.2 °F 29.62 in ESE 5.0 mph 12.0 mph 55% 0.00 in 0.00 W/m2
01:36 59.3 °F 43.2 °F 29.61 in SE 9.0 mph 12.0 mph 55% 0.00 in 0.00 W/m2
01:41 59.3 °F 43.6 °F 29.61 in SE 7.0 mph 7.0 mph 56% 0.00 in 0.00 W/m2
01:46 59.2 °F 43.5 °F 29.61 in SE 7.0 mph 12.0 mph 56% 0.00 in 0.00 W/m2
01:51 59.1 °F 43.4 °F 29.61 in SE 9.0 mph 14.0 mph 56% 0.00 in 0.00 W/m2
01:56 59.1 °F 43.9 °F 29.61 in SE 8.0 mph 12.0 mph 57% 0.00 in 0.00 W/m2
02:01 59.0 °F 44.3 °F 29.61 in SE 11.0 mph 11.0 mph 58% 0.00 in 0.00 W/m2
02:06 59.0 °F 43.8 °F 29.61 in Calm   12.0 mph 57% 0.00 in 0.00 W/m2
02:11 58.9 °F 43.7 °F 29.61 in SE 6.0 mph 12.0 mph 57% 0.00 in 0.00 W/m2
02:16 58.9 °F 43.7 °F 29.62 in Calm   11.0 mph 57% 0.00 in 0.00 W/m2
02:21 58.8 °F 43.6 °F 29.62 in Calm     57% 0.00 in 0.00 W/m2
02:26 58.7 °F 43.5 °F 29.62 in SE 5.0 mph 11.0 mph 57% 0.00 in 0.00 W/m2
02:31 58.7 °F 43.5 °F 29.61 in SE 5.0 mph 12.0 mph 57% 0.00 in 0.00 W/m2
02:36 58.7 °F 43.5 °F 29.61 in Calm     57% 0.00 in 0.00 W/m2
02:41 58.6 °F 43.4 °F 29.61 in SE 8.0 mph 12.0 mph 57% 0.00 in 0.00 W/m2
02:46 58.6 °F 43.4 °F 29.61 in SE 7.0 mph 12.0 mph 57% 0.00 in 0.00 W/m2
02:51 58.6 °F 43.4 °F 29.61 in SE 8.0 mph 15.0 mph 57% 0.00 in 0.00 W/m2
02:56 58.5 °F 43.8 °F 29.61 in SE 6.0 mph 13.0 mph 58% 0.00 in 0.00 W/m2
03:01 58.5 °F 44.2 °F 29.61 in SE 11.0 mph 11.0 mph 59% 0.00 in 0.00 W/m2
03:06 58.5 °F 43.8 °F 29.61 in SE 9.0 mph 12.0 mph 58% 0.00 in 0.00 W/m2
03:11 58.4 °F 43.7 °F 29.61 in SE 6.0 mph 13.0 mph 58% 0.00 in 0.00 W/m2
03:16 58.4 °F 43.7 °F 29.61 in SE 5.0 mph 9.0 mph 58% 0.00 in 0.00 W/m2
03:21 58.4 °F 43.7 °F 29.61 in SE 4.0 mph 8.0 mph 58% 0.00 in 0.00 W/m2
03:26 58.3 °F 43.6 °F 29.61 in SE 8.0 mph 9.0 mph 58% 0.00 in 0.00 W/m2
03:36 58.2 °F 44.0 °F 29.61 in SE 6.0 mph 11.0 mph 59% 0.00 in 0.00 W/m2
03:41 58.2 °F 43.5 °F 29.61 in SE 7.0 mph 8.0 mph 58% 0.00 in 0.00 W/m2
03:46 58.1 °F 43.4 °F 29.61 in Calm   1.0 mph 58% 0.00 in 0.00 W/m2
03:51 58.0 °F 43.3 °F 29.61 in SE 4.0 mph 9.0 mph 58% 0.00 in 0.00 W/m2
03:56 57.9 °F 43.2 °F 29.61 in SE 7.0 mph 11.0 mph 58% 0.00 in 0.00 W/m2
04:01 57.8 °F 43.1 °F 29.61 in SE 9.0 mph 9.0 mph 58% 0.00 in 0.00 W/m2
04:06 57.8 °F 43.1 °F 29.61 in Calm   1.0 mph 58% 0.00 in 0.00 W/m2
04:11 57.7 °F 42.6 °F 29.61 in SE 7.0 mph 11.0 mph 57% 0.00 in 0.00 W/m2
04:17 57.6 °F 42.5 °F 29.61 in SE 5.0 mph 9.0 mph 57% 0.00 in 0.00 W/m2
04:19 57.6 °F 43.0 °F 29.61 in SE 8.0 mph 10.0 mph 58% 0.00 in 0.00 W/m2
04:24 57.5 °F 42.8 °F 29.61 in SE 7.0 mph 13.0 mph 58% 0.00 in 0.00 W/m2
04:29 57.4 °F 42.8 °F 29.61 in SE 7.0 mph 10.0 mph 58% 0.00 in 0.00 W/m2
04:34 57.3 °F 43.1 °F 29.61 in SE 9.0 mph 12.0 mph 59% 0.00 in 0.00 W/m2
04:39 57.2 °F 42.6 °F 29.61 in SE 2.0 mph 12.0 mph 58% 0.00 in 0.00 W/m2
04:44 57.1 °F 42.5 °F 29.61 in SE 6.0 mph 11.0 mph 58% 0.00 in 0.00 W/m2
04:49 57.1 °F 42.5 °F 29.61 in SE 6.0 mph 12.0 mph 58% 0.00 in 0.00 W/m2
04:54 57.0 °F 42.4 °F 29.61 in SE 5.0 mph 9.0 mph 58% 0.00 in 0.00 W/m2
04:59 56.9 °F 42.7 °F 29.61 in Calm   1.0 mph 59% 0.00 in 0.00 W/m2
05:04 56.8 °F 42.6 °F 29.61 in Calm   1.0 mph 59% 0.00 in 0.00 W/m2
05:09 56.7 °F 42.1 °F 29.61 in Calm     58% 0.00 in 0.00 W/m2
05:14 56.6 °F 42.5 °F 29.62 in Calm     59% 0.00 in 0.00 W/m2
05:19 56.5 °F 42.4 °F 29.62 in Calm     59% 0.00 in 0.00 W/m2
05:24 56.4 °F 42.3 °F 29.62 in Calm     59% 0.00 in 0.00 W/m2
05:29 56.3 °F 42.6 °F 29.62 in Calm     60% 0.00 in 0.00 W/m2
05:34 56.1 °F 43.3 °F 29.62 in Calm     62% 0.00 in 0.00 W/m2
05:39 55.2 °F 42.4 °F 29.62 in Calm     62% 0.00 in 0.00 W/m2
05:44 54.4 °F 42.5 °F 29.63 in Calm     64% 0.00 in 5.00 W/m2
05:49 53.5 °F 42.0 °F 29.63 in Calm     65% 0.00 in 9.00 W/m2
05:54 52.0 °F 42.2 °F 29.63 in Calm     69% 0.00 in 11.00 W/m2
05:59 51.1 °F 42.4 °F 29.63 in Calm     72% 0.00 in 14.00 W/m2
06:04 50.5 °F 42.2 °F 29.63 in Calm     73% 0.00 in 16.00 W/m2
06:09 50.2 °F 42.2 °F 29.64 in Calm     74% 0.00 in 19.00 W/m2
06:14 50.0 °F 42.4 °F 29.64 in Calm     75% 0.00 in 25.00 W/m2
06:19 49.9 °F 42.3 °F 29.64 in Calm     75% 0.00 in 33.00 W/m2
06:24 49.8 °F 42.2 °F 29.64 in Calm     75% 0.00 in 46.00 W/m2
06:29 49.7 °F 42.5 °F 29.64 in Calm     76% 0.00 in 58.00 W/m2
06:34 49.6 °F 42.4 °F 29.64 in Calm     76% 0.00 in 72.00 W/m2
06:39 49.6 °F 42.4 °F 29.64 in Calm     76% 0.00 in 86.00 W/m2
06:44 49.7 °F 42.8 °F 29.64 in Calm     77% 0.00 in 102.00 W/m2
06:49 49.7 °F 42.8 °F 29.64 in Calm     77% 0.00 in 118.00 W/m2
06:55 49.8 °F 42.9 °F 29.64 in Calm     77% 0.00 in 135.00 W/m2
07:00 49.9 °F 43.3 °F 29.65 in Calm     78% 0.00 in 155.00 W/m2
07:05 50.1 °F 43.5 °F 29.65 in Calm   1.0 mph 78% 0.00 in 176.00 W/m2
07:10 50.2 °F 43.6 °F 29.64 in Calm     78% 0.00 in 197.00 W/m2
07:15 50.3 °F 43.7 °F 29.65 in Calm     78% 0.00 in 220.00 W/m2
07:20 50.5 °F 43.9 °F 29.65 in Calm   6.0 mph 78% 0.00 in 241.00 W/m2
07:25 50.6 °F 44.0 °F 29.65 in Calm   1.0 mph 78% 0.00 in 260.00 W/m2
07:30 50.8 °F 44.5 °F 29.66 in Calm     79% 0.00 in 278.00 W/m2
07:35 50.9 °F 44.6 °F 29.66 in Calm     79% 0.00 in 294.00 W/m2
07:40 50.8 °F 44.5 °F 29.66 in Calm     79% 0.00 in 313.00 W/m2
07:45 50.5 °F 44.2 °F 29.67 in Calm     79% 0.00 in 330.00 W/m2
07:50 50.2 °F 44.3 °F 29.67 in Calm     80% 0.00 in 345.00 W/m2
07:55 49.9 °F 44.3 °F 29.67 in Calm     81% 0.00 in 360.00 W/m2
08:00 49.6 °F 44.3 °F 29.67 in Calm     82% 0.00 in 381.00 W/m2
08:05 49.6 °F 44.3 °F 29.67 in Calm     82% 0.00 in 396.00 W/m2
08:10 49.5 °F 44.6 °F 29.67 in Calm     83% 0.00 in 415.00 W/m2
08:15 49.5 °F 44.6 °F 29.67 in Calm     83% 0.00 in 429.00 W/m2
08:20 49.6 °F 44.7 °F 29.67 in SSE 2.0 mph 4.0 mph 83% 0.00 in 446.00 W/m2
08:25 49.7 °F 44.4 °F 29.67 in SSE 1.0 mph 4.0 mph 82% 0.00 in 468.00 W/m2
08:30 49.9 °F 44.6 °F 29.67 in SSE 1.0 mph 4.0 mph 82% 0.00 in 482.00 W/m2
08:35 50.1 °F 44.8 °F 29.68 in Calm   2.0 mph 82% 0.00 in 499.00 W/m2
08:40 50.4 °F 45.1 °F 29.68 in Calm     82% 0.00 in 512.00 W/m2
08:45 50.6 °F 45.0 °F 29.68 in Calm     81% 0.00 in 529.00 W/m2
08:50 50.9 °F 45.6 °F 29.68 in Calm     82% 0.00 in 543.00 W/m2
08:55 51.3 °F 45.7 °F 29.68 in Calm     81% 0.00 in 559.00 W/m2
09:01 51.8 °F 46.2 °F 29.69 in Calm     81% 0.00 in 575.00 W/m2
09:06 52.2 °F 46.2 °F 29.69 in Calm     80% 0.00 in 591.00 W/m2
09:11 52.5 °F 46.5 °F 29.69 in Calm     80% 0.00 in 606.00 W/m2
09:16 52.7 °F 46.4 °F 29.69 in Calm     79% 0.00 in 615.00 W/m2
09:21 52.9 °F 46.6 °F 29.69 in Calm     79% 0.00 in 635.00 W/m2
09:26 53.0 °F 46.3 °F 29.69 in Calm     78% 0.00 in 647.00 W/m2
09:31 53.2 °F 46.5 °F 29.69 in Calm     78% 0.00 in 663.00 W/m2
09:36 53.5 °F 46.8 °F 29.69 in Calm   4.0 mph 78% 0.00 in 675.00 W/m2
09:41 53.7 °F 47.0 °F 29.69 in Calm     78% 0.00 in 689.00 W/m2
09:46 53.9 °F 47.2 °F 29.69 in Calm   2.0 mph 78% 0.00 in 705.00 W/m2
09:51 54.1 °F 47.4 °F 29.69 in South 2.0 mph 4.0 mph 78% 0.00 in 719.00 W/m2
09:56 54.4 °F 47.3 °F 29.69 in South 1.0 mph 4.0 mph 77% 0.00 in 728.00 W/m2
10:01 54.5 °F 47.5 °F 29.69 in Calm     77% 0.00 in 740.00 W/m2
10:06 54.7 °F 47.6 °F 29.69 in South 1.0 mph 1.0 mph 77% 0.00 in 752.00 W/m2
10:11 54.9 °F 47.8 °F 29.69 in Calm     77% 0.00 in 765.00 W/m2
10:16 55.1 °F 48.0 °F 29.70 in Calm   1.0 mph 77% 0.00 in 777.00 W/m2
10:21 55.2 °F 47.8 °F 29.70 in SSW 3.0 mph 4.0 mph 76% 0.00 in 789.00 W/m2
10:26 55.4 °F 48.0 °F 29.70 in Calm     76% 0.00 in 800.00 W/m2
10:31 55.6 °F 48.2 °F 29.70 in SW 3.0 mph 5.0 mph 76% 0.00 in 809.00 W/m2
10:36 55.7 °F 47.9 °F 29.70 in Calm     75% 0.00 in 819.00 W/m2
10:41 55.9 °F 48.1 °F 29.70 in Calm     75% 0.00 in 830.00 W/m2
10:46 55.9 °F 48.1 °F 29.70 in Calm   1.0 mph 75% 0.00 in 838.00 W/m2
10:51 56.0 °F 48.2 °F 29.71 in Calm     75% 0.00 in 849.00 W/m2
10:56 55.9 °F 48.1 °F 29.71 in Calm     75% 0.00 in 856.00 W/m2
11:01 55.9 °F 48.1 °F 29.71 in Calm     75% 0.00 in 868.00 W/m2
11:06 55.9 °F 48.5 °F 29.71 in WSW 3.0 mph 5.0 mph 76% 0.00 in 874.00 W/m2
11:11 56.1 °F 48.3 °F 29.71 in SW 3.0 mph 5.0 mph 75% 0.00 in 877.00 W/m2
11:16 56.2 °F 48.4 °F 29.71 in WSW 3.0 mph 4.0 mph 75% 0.00 in 886.00 W/m2
11:21 56.5 °F 48.7 °F 29.71 in Calm     75% 0.00 in 891.00 W/m2
11:26 56.6 °F 48.8 °F 29.72 in SSW 4.0 mph 5.0 mph 75% 0.00 in 898.00 W/m2
11:31 57.0 °F 49.2 °F 29.71 in SW 7.0 mph 7.0 mph 75% 0.00 in 907.00 W/m2
11:32 57.0 °F 49.2 °F 29.72 in Calm   7.0 mph 75% 0.00 in 909.00 W/m2
11:37 57.5 °F 48.9 °F 29.71 in South 4.0 mph 11.0 mph 73% 0.00 in 914.00 W/m2
11:42 57.9 °F 48.6 °F 29.71 in SW 3.0 mph 6.0 mph 71% 0.00 in 919.00 W/m2
11:47 58.4 °F 49.0 °F 29.71 in SSW 2.0 mph 3.0 mph 71% 0.00 in 925.00 W/m2
11:52 58.8 °F 49.4 °F 29.72 in SW 7.0 mph 7.0 mph 71% 0.00 in 932.00 W/m2
11:57 59.1 °F 48.6 °F 29.72 in SW 7.0 mph 7.0 mph 68% 0.00 in 935.00 W/m2
12:02 59.5 °F 48.2 °F 29.72 in SSW 1.0 mph 7.0 mph 66% 0.00 in 937.00 W/m2
12:07 59.9 °F 49.3 °F 29.72 in SSW 5.0 mph 7.0 mph 68% 0.00 in 942.00 W/m2
12:12 60.3 °F 48.5 °F 29.72 in Calm   7.0 mph 65% 0.00 in 944.00 W/m2
12:17 60.8 °F 49.0 °F 29.72 in Calm   7.0 mph 65% 0.00 in 949.00 W/m2
12:22 61.3 °F 48.6 °F 29.72 in SW 1.0 mph 7.0 mph 63% 0.00 in 949.00 W/m2
12:27 61.8 °F 48.7 °F 29.72 in SSW 7.0 mph 11.0 mph 62% 0.00 in 953.00 W/m2
12:32 62.3 °F 48.2 °F 29.72 in Calm   11.0 mph 60% 0.00 in 956.00 W/m2
12:37 62.9 °F 47.9 °F 29.72 in Calm   10.0 mph 58% 0.00 in 954.00 W/m2
12:42 63.4 °F 48.8 °F 29.72 in SSW 5.0 mph 11.0 mph 59% 0.00 in 960.00 W/m2
12:47 63.8 °F 47.8 °F 29.72 in SW 4.0 mph 8.0 mph 56% 0.00 in 960.00 W/m2
12:52 63.8 °F 48.8 °F 29.72 in SW 1.0 mph 8.0 mph 58% 0.00 in 960.00 W/m2
12:57 63.9 °F 48.8 °F 29.72 in South 4.0 mph 7.0 mph 58% 0.00 in 960.00 W/m2
13:02 64.3 °F 48.8 °F 29.72 in Calm   3.0 mph 57% 0.00 in 963.00 W/m2
13:07 64.7 °F 48.7 °F 29.72 in SW 2.0 mph 7.0 mph 56% 0.00 in 962.00 W/m2
13:12 64.9 °F 48.8 °F 29.72 in SSE 1.0 mph 12.0 mph 56% 0.00 in 962.00 W/m2
13:13 65.0 °F 48.5 °F 29.72 in South 2.0 mph 12.0 mph 55% 0.00 in 958.00 W/m2
13:18 65.4 °F 48.3 °F 29.72 in Calm   9.0 mph 54% 0.00 in 958.00 W/m2
13:23 65.5 °F 48.9 °F 29.72 in SSW 3.0 mph 12.0 mph 55% 0.00 in 956.00 W/m2
13:28 65.6 °F 48.0 °F 29.72 in SSE 5.0 mph 11.0 mph 53% 0.00 in 951.00 W/m2
13:33 65.9 °F 48.8 °F 29.73 in Calm     54% 0.00 in 949.00 W/m2
13:38 66.2 °F 49.1 °F 29.72 in South 4.0 mph 8.0 mph 54% 0.00 in 947.00 W/m2
13:43 66.3 °F 49.2 °F 29.73 in SW 7.0 mph 13.0 mph 54% 0.00 in 944.00 W/m2
13:48 66.5 °F 48.9 °F 29.73 in Calm   6.0 mph 53% 0.00 in 940.00 W/m2
13:53 66.5 °F 49.4 °F 29.73 in SSW 5.0 mph 11.0 mph 54% 0.00 in 933.00 W/m2
13:58 66.5 °F 48.9 °F 29.73 in Calm   10.0 mph 53% 0.00 in 930.00 W/m2
14:03 66.6 °F 49.5 °F 29.73 in SSW 4.0 mph 8.0 mph 54% 0.00 in 928.00 W/m2
14:08 66.7 °F 49.0 °F 29.73 in SSW 6.0 mph 9.0 mph 53% 0.00 in 921.00 W/m2
14:13 66.6 °F 48.4 °F 29.73 in South 3.0 mph 12.0 mph 52% 0.00 in 916.00 W/m2
14:18 66.5 °F 48.3 °F 29.73 in South 2.0 mph 7.0 mph 52% 0.00 in 909.00 W/m2
14:23 66.7 °F 49.0 °F 29.73 in South 6.0 mph 13.0 mph 53% 0.00 in 902.00 W/m2
14:28 66.8 °F 49.6 °F 29.73 in South 5.0 mph 8.0 mph 54% 0.00 in 891.00 W/m2
14:33 66.8 °F 49.6 °F 29.73 in SSW 5.0 mph 8.0 mph 54% 0.00 in 888.00 W/m2
14:38 66.8 °F 49.1 °F 29.72 in SSE 2.0 mph 6.0 mph 53% 0.00 in 881.00 W/m2
14:43 66.8 °F 49.1 °F 29.73 in South 6.0 mph 8.0 mph 53% 0.00 in 872.00 W/m2
14:48 66.9 °F 49.2 °F 29.72 in SSW 7.0 mph 13.0 mph 53% 0.00 in 861.00 W/m2
14:53 66.9 °F 49.7 °F 29.72 in South 4.0 mph 12.0 mph 54% 0.00 in 856.00 W/m2
14:58 66.8 °F 49.6 °F 29.73 in Calm   13.0 mph 54% 0.00 in 849.00 W/m2
15:03 66.3 °F 49.7 °F 29.73 in SW 8.0 mph 15.0 mph 55% 0.00 in 840.00 W/m2
15:08 65.8 °F 49.2 °F 29.73 in WSW 5.0 mph 16.0 mph 55% 0.00 in 828.00 W/m2
15:13 65.4 °F 49.8 °F 29.73 in Calm   1.0 mph 57% 0.00 in 823.00 W/m2
15:18 65.2 °F 50.5 °F 29.73 in Calm   10.0 mph 59% 0.00 in 814.00 W/m2
15:23 65.3 °F 50.2 °F 29.73 in South 8.0 mph 18.0 mph 58% 0.00 in 803.00 W/m2
15:28 65.3 °F 50.2 °F 29.73 in SSW 14.0 mph 14.0 mph 58% 0.00 in 786.00 W/m2
15:33 65.3 °F 49.7 °F 29.73 in Calm   12.0 mph 57% 0.00 in 777.00 W/m2
15:39 65.1 °F 49.5 °F 29.73 in SW 12.0 mph 12.0 mph 57% 0.00 in 765.00 W/m2
15:44 64.9 °F 49.3 °F 29.73 in SW 10.0 mph 12.0 mph 57% 0.00 in 752.00 W/m2
15:49 64.7 °F 49.1 °F 29.73 in SW 7.0 mph 11.0 mph 57% 0.00 in 742.00 W/m2
15:54 64.7 °F 50.1 °F 29.73 in SSW 12.0 mph 15.0 mph 59% 0.00 in 724.00 W/m2
15:59 64.5 °F 49.9 °F 29.72 in Calm   11.0 mph 59% 0.00 in 717.00 W/m2
16:04 64.5 °F 50.3 °F 29.73 in WSW 10.0 mph 12.0 mph 60% 0.00 in 703.00 W/m2
16:09 64.5 °F 49.9 °F 29.73 in WSW 6.0 mph 13.0 mph 59% 0.00 in 693.00 W/m2
16:14 64.5 °F 49.9 °F 29.72 in Calm   9.0 mph 59% 0.00 in 679.00 W/m2
16:19 64.5 °F 50.3 °F 29.73 in Calm   11.0 mph 60% 0.00 in 664.00 W/m2
16:24 64.5 °F 49.9 °F 29.73 in SW 9.0 mph 12.0 mph 59% 0.00 in 647.00 W/m2
16:29 64.4 °F 49.8 °F 29.73 in Calm   12.0 mph 59% 0.00 in 635.00 W/m2
16:34 64.4 °F 49.8 °F 29.73 in Calm   10.0 mph 59% 0.00 in 624.00 W/m2
16:39 64.4 °F 50.2 °F 29.73 in South 1.0 mph 1.0 mph 60% 0.00 in 608.00 W/m2
16:40 64.3 °F 50.1 °F 29.73 in Calm   9.0 mph 60% 0.00 in 605.00 W/m2
16:45 64.4 °F 49.3 °F 29.73 in South 9.0 mph 13.0 mph 58% 0.00 in 592.00 W/m2
16:50 64.3 °F 49.2 °F 29.73 in SW 7.0 mph 11.0 mph 58% 0.00 in 577.00 W/m2
16:55 64.3 °F 49.7 °F 29.73 in Calm   11.0 mph 59% 0.00 in 559.00 W/m2
17:00 64.2 °F 49.6 °F 29.73 in SW 1.0 mph 2.0 mph 59% 0.00 in 547.00 W/m2
17:05 64.1 °F 50.0 °F 29.73 in WSW 1.0 mph 9.0 mph 60% 0.00 in 529.00 W/m2
17:10 64.1 °F 49.5 °F 29.73 in Calm   12.0 mph 59% 0.00 in 510.00 W/m2
17:15 64.1 °F 50.0 °F 29.73 in Calm   11.0 mph 60% 0.00 in 499.00 W/m2
17:20 64.1 °F 50.0 °F 29.73 in Calm   9.0 mph 60% 0.00 in 483.00 W/m2
17:25 64.1 °F 49.5 °F 29.74 in WSW 4.0 mph 8.0 mph 59% 0.00 in 468.00 W/m2
17:30 64.0 °F 49.4 °F 29.73 in Calm   2.0 mph 59% 0.00 in 454.00 W/m2
17:35 64.0 °F 49.4 °F 29.73 in SSW 2.0 mph 14.0 mph 59% 0.00 in 436.00 W/m2
17:40 63.9 °F 49.8 °F 29.73 in South 3.0 mph 12.0 mph 60% 0.00 in 422.00 W/m2
17:45 63.8 °F 49.7 °F 29.74 in Calm   1.0 mph 60% 0.00 in 403.00 W/m2
17:50 63.6 °F 49.5 °F 29.74 in SSW 1.0 mph 10.0 mph 60% 0.00 in 388.00 W/m2
17:55 63.5 °F 49.4 °F 29.74 in Calm   2.0 mph 60% 0.00 in 371.00 W/m2
18:00 63.5 °F 49.4 °F 29.74 in Calm   2.0 mph 60% 0.00 in 355.00 W/m2
18:05 63.4 °F 49.7 °F 29.74 in WSW 1.0 mph 1.0 mph 61% 0.00 in 338.00 W/m2
18:10 63.3 °F 49.6 °F 29.74 in SW 2.0 mph 11.0 mph 61% 0.00 in 323.00 W/m2
18:15 63.2 °F 49.5 °F 29.74 in South 5.0 mph 8.0 mph 61% 0.00 in 306.00 W/m2
18:20 63.1 °F 49.5 °F 29.74 in SSW 1.0 mph 8.0 mph 61% 0.00 in 290.00 W/m2
18:25 63.1 °F 49.5 °F 29.74 in SSW 1.0 mph 1.0 mph 61% 0.00 in 274.00 W/m2
18:30 63.0 °F 49.8 °F 29.74 in SW 1.0 mph 1.0 mph 62% 0.00 in 257.00 W/m2
18:35 62.9 °F 49.3 °F 29.74 in Calm   9.0 mph 61% 0.00 in 241.00 W/m2
18:40 62.8 °F 49.6 °F 29.74 in SW 1.0 mph 2.0 mph 62% 0.00 in 225.00 W/m2
18:45 62.7 °F 49.9 °F 29.74 in Calm   1.0 mph 63% 0.00 in 213.00 W/m2
18:50 62.6 °F 49.8 °F 29.74 in Calm   1.0 mph 63% 0.00 in 197.00 W/m2
18:55 62.5 °F 49.8 °F 29.74 in Calm   1.0 mph 63% 0.00 in 179.00 W/m2
19:00 62.4 °F 50.1 °F 29.74 in Calm     64% 0.00 in 160.00 W/m2
19:05 62.3 °F 50.0 °F 29.74 in Calm     64% 0.00 in 142.00 W/m2
19:10 62.2 °F 49.9 °F 29.74 in Calm     64% 0.00 in 123.00 W/m2
19:15 62.2 °F 49.9 °F 29.75 in Calm     64% 0.00 in 105.00 W/m2
19:20 62.1 °F 50.2 °F 29.75 in Calm     65% 0.00 in 88.00 W/m2
19:25 62.0 °F 50.5 °F 29.75 in Calm     66% 0.00 in 76.00 W/m2
19:30 62.0 °F 50.5 °F 29.75 in Calm     66% 0.00 in 60.00 W/m2
19:35 61.8 °F 50.7 °F 29.75 in Calm     67% 0.00 in 47.00 W/m2
19:40 61.7 °F 50.6 °F 29.75 in Calm     67% 0.00 in 37.00 W/m2
19:45 61.7 °F 51.0 °F 29.75 in Calm     68% 0.00 in 28.00 W/m2
19:50 61.5 °F 50.8 °F 29.75 in Calm     68% 0.00 in 21.00 W/m2
19:55 61.4 °F 51.2 °F 29.76 in Calm     69% 0.00 in 18.00 W/m2
20:01 61.2 °F 51.0 °F 29.76 in Calm   1.0 mph 69% 0.00 in 14.00 W/m2
20:06 61.1 °F 50.9 °F 29.76 in Calm     69% 0.00 in 12.00 W/m2
20:11 60.9 °F 51.1 °F 29.76 in Calm     70% 0.00 in 11.00 W/m2
20:16 60.7 °F 50.9 °F 29.76 in Calm     70% 0.00 in 7.00 W/m2
20:21 60.5 °F 50.7 °F 29.76 in Calm     70% 0.00 in 5.00 W/m2
20:26 60.2 °F 50.4 °F 29.76 in Calm     70% 0.00 in 0.00 W/m2
20:31 60.0 °F 50.6 °F 29.76 in Calm     71% 0.00 in 0.00 W/m2
20:36 59.6 °F 50.2 °F 29.77 in Calm     71% 0.00 in 0.00 W/m2
20:41 59.3 °F 50.3 °F 29.77 in Calm     72% 0.00 in 0.00 W/m2
20:46 59.0 °F 50.0 °F 29.77 in Calm     72% 0.00 in 0.00 W/m2
20:51 58.6 °F 50.0 °F 29.77 in Calm     73% 0.00 in 0.00 W/m2
20:56 57.9 °F 49.7 °F 29.77 in Calm     74% 0.00 in 0.00 W/m2
21:01 57.4 °F 49.5 °F 29.78 in Calm     75% 0.00 in 0.00 W/m2
21:06 57.1 °F 49.6 °F 29.78 in Calm     76% 0.00 in 0.00 W/m2
21:11 56.8 °F 49.3 °F 29.78 in Calm     76% 0.00 in 0.00 W/m2
21:16 56.6 °F 49.5 °F 29.78 in Calm     77% 0.00 in 0.00 W/m2
21:21 56.3 °F 49.2 °F 29.79 in Calm     77% 0.00 in 0.00 W/m2
21:26 56.1 °F 49.0 °F 29.79 in Calm     77% 0.00 in 0.00 W/m2
21:31 55.9 °F 49.2 °F 29.79 in Calm     78% 0.00 in 0.00 W/m2
21:36 55.8 °F 49.0 °F 29.79 in Calm     78% 0.00 in 0.00 W/m2
21:41 55.6 °F 48.9 °F 29.79 in Calm     78% 0.00 in 0.00 W/m2
21:46 55.5 °F 49.1 °F 29.79 in Calm     79% 0.00 in 0.00 W/m2
21:51 55.3 °F 48.9 °F 29.79 in Calm     79% 0.00 in 0.00 W/m2
21:53 55.2 °F 48.8 °F 29.79 in Calm     79% 0.00 in 0.00 W/m2
21:58 55.1 °F 48.7 °F 29.79 in Calm     79% 0.00 in 0.00 W/m2
22:03 54.9 °F 48.5 °F 29.80 in Calm     79% 0.00 in 0.00 W/m2
22:08 54.8 °F 48.8 °F 29.80 in Calm     80% 0.00 in 0.00 W/m2
22:13 54.7 °F 48.7 °F 29.80 in Calm     80% 0.00 in 0.00 W/m2
22:18 54.6 °F 48.6 °F 29.80 in Calm     80% 0.00 in 0.00 W/m2
22:23 54.4 °F 48.4 °F 29.80 in Calm     80% 0.00 in 0.00 W/m2
22:28 54.3 °F 48.3 °F 29.81 in Calm     80% 0.00 in 0.00 W/m2
22:33 54.2 °F 48.2 °F 29.81 in Calm     80% 0.00 in 0.00 W/m2
22:38 54.1 °F 48.1 °F 29.81 in Calm     80% 0.00 in 0.00 W/m2
22:43 54.0 °F 48.3 °F 29.81 in Calm     81% 0.00 in 0.00 W/m2
22:49 53.9 °F 48.2 °F 29.81 in Calm     81% 0.00 in 0.00 W/m2
22:54 53.8 °F 48.1 °F 29.81 in Calm     81% 0.00 in 0.00 W/m2
22:59 53.7 °F 48.0 °F 29.81 in Calm     81% 0.00 in 0.00 W/m2
23:04 53.5 °F 47.5 °F 29.82 in Calm     80% 0.00 in 0.00 W/m2
23:09 53.4 °F 47.4 °F 29.82 in Calm     80% 0.00 in 0.00 W/m2
23:14 53.3 °F 47.3 °F 29.82 in Calm     80% 0.00 in 0.00 W/m2
23:19 53.1 °F 47.1 °F 29.82 in Calm     80% 0.00 in 0.00 W/m2
23:24 52.8 °F 46.8 °F 29.82 in Calm     80% 0.00 in 0.00 W/m2
23:29 52.5 °F 46.5 °F 29.83 in Calm     80% 0.00 in 0.00 W/m2
23:34 52.2 °F 46.2 °F 29.83 in Calm     80% 0.00 in 0.00 W/m2
23:39 51.9 °F 46.3 °F 29.83 in Calm     81% 0.00 in 0.00 W/m2
23:44 51.6 °F 46.0 °F 29.83 in Calm     81% 0.00 in 0.00 W/m2
23:49 51.5 °F 46.2 °F 29.83 in Calm     82% 0.00 in 0.00 W/m2
23:54 51.4 °F 46.1 °F 29.83 in Calm     82% 0.00 in 0.00 W/m2
23:59 51.3 °F 46.0 °F 29.83 in Calm     82% 0.00 in 0.00 W/m2
Foresthill Weather
 WU-history PHP script courtesy of   Juneau County Weather.
powered by Cumulus v1.9.3 (1059)
Ambient Weather VWS v14.00
Top Contact Website Map Copyright © 2007 - 2018 Foresthillweather.com Never base important decisions on this or any weather information obtained from the Internet